Погода Тарко-Сале

Погода Тарко-Сале : погода сейчас, прогноз погоды и архив. Всё, что Вы хотите узнать о погоде Тарко-Сале!

Хотите узнать прогноз погоды Тарко-Сале? Тогда Вам сюда: Погода Тарко-Сале

Поиск расширенной информации на нашем сайте:

Другие новости

Новости СМИ2

Главная страница сайта

Новости сайта

03.07.2017

Напоминаем, что на нашем специализированном сайте Метеоцентр.Азия вы можете получить высокодетализированные автоматические прогнозы погоды по пунктам России, СНГ и мира в авиационном формате (включающие направление и скорость ветра, видимость, явления погоды, количество и форму облачности, нижнюю и верхнюю границу облачности).

Рекомендуем: http://china-dv.ru/ заказать и купить болюсы хуато.

Погода Тарко-Сале - сегодня

Время (UTC), дата Ветер
(°,м/с) 
Видим.   Явления Облачность Т
(°С)
Тd
(°С)
f(%) Тe
(°С)
Pmin
(гПа)
dP
(гПа)
Po
(мм)
O2
(г/м3)
Тmin Tmax R s Состояние
почвы
21 18.09.17 060 (СВ) 4000 м  дымка  10/10 150 м 
[St]
+4.7 +4.7 100 +4  1006.8  1.1  753  297           
00 19.09.17 040 (СВ) 4000 м  дымка  10/10 240 м 
[Sc]
+4.4 +4.2 99 +5  1008.5  1.7  754  298           
03 19.09.17 030 (СВ) 10 км  дымка{дождь}  10/6 750 м средняя 
[Sc|Ac trans]
+5.1 +4.4 95 +6  1010.1  1.6  755  298  +4.4    0.3    мокрая 
06 19.09.17 050 (СВ) 10 км  {дождь}  10/3 600 м кучево-дожд., средняя, верхняя 
[Cb cap|Ac trans|Ci fib]
+7.5 +4.3 80 +7  1012  1.9  757  296           
09 19.09.17 070 (В) 10 км    10/4 600 м кучево-дожд., средняя, верхняя 
[Cb cap|Ac trans|Ci fib]
+9.1 +3.2 67 +9  1013.3  1.3  758  295           
12 19.09.17 060 (СВ) 10 км    9/3 600 м кучево-дожд., средняя 
[Cb cap|Ac trans]
+8.5 +3 68 +9  1015.2  1.9  759  296           
15 19.09.17 тихо ()   10 км    10/0 средняя 
[Ac und]
+6 +3.6 85 +6  1016.6  1.4  760  299    +9.8       
18 19.09.17 010 (С) 10 км    ясно 
+2.7 +2.6 99 +3  1017.3  0.6  761  303           
21 19.09.17 340 (С) 10 км    10/0 средняя 
[Ac und]
+4.5 +2.8 89 +5  1017.7  0.4  761  301           
00 20.09.17 340 (С) 4000 м  дымка  10/0 средняя, верхняя 
[Ac trans|Ci fib]
+2.6 +2.3 98 +3  1018  0.3  761  303           
03 20.09.17 010 (С) 4000 м  дымка  10/0 средняя 
[Ac cast]
+3.7 +2.7 93 +5  1018.2  0.2  761  302  +2.3        влажная 
06 20.09.17 020 (С) 10 км    9/0 средняя 
[Ac cast]
+6.9 +2.6 74 +7  1018.5  0.4  761  299           
09 20.09.17 010 (С) 10 км    10/0 средняя, верхняя 
[Ac cast|Cc]
+10.2 +0.6 51 +10  1018.4  -0.1  761  296           
12 20.09.17 350 (С) 10 км    10/0 средняя 
[Ac cast]
+9.6 -0.2 50 +11  1018.3  -0.1  761  296           
15 20.09.17 350 (С) 10 км    10/0 средняя 
[Ac As]
+7.3 +0.4 62 +8  1018.7  0.4  762  299    +11.4       
18 20.09.17 350 (С) 10 км    10/0 средняя 
[Ac As]
+5.2 -0.4 67 +6  1018.6  -0.1  762  301           
21 20.09.17 330 (СЗ) 10 км    8/6 480 м средняя 
[Sc|Ac trans]
+2.5 -0.2 82 +2  1018.1  -0.6  761  304           
00 21.09.17 330 (СЗ) 4000 м  дымка  10/10 100 м 
[St]
+0.1 +0.1 100 -1  1018.8  0.7  762  307           
03 21.09.17 320 (СЗ) 4000 м  дымка  10/10 180 м 
[St]
+0.8 +0.7 99 -1  1018.7  -0.1  762  306  -0.2        влажная 
06 21.09.17 300 (СЗ) 4000 м  слаб. ливневой снег  10/10 400 м кучево-дожд. 
[Cb cap]
+2.8 +0.9 87 +1  1017.5  -1.1  761  303           
09 21.09.17 310 (СЗ) 4000 м  слаб. ливневой дождь  10/10 300 м кучево-дожд. 
[Cb cap]
+3.3 +2 91 +2  1016.6  -1  760  302           
12 21.09.17 320 (СЗ) 4000 м  слаб. дождь{ливн. осадки}  10/10 330 м 
[Sc]
+3.7 +3.7 100 +3  1016  -0.6  760  301           
15 21.09.17 350 (С) 3{11}  10 км  слаб. дождь  10/10 270 м 
[Sc diur, vesp]
+1.5 +0.7 94 1017  760  305    +3.8     
18 21.09.17 360 (С) 10 км  в посл. час ливневой снег{дождь}  10/10 870 м кучево-дожд. 
[Cb cap]
-0.4 -1.4 93 -1  1018  761  307           
21 21.09.17 360 (С) 2{10}  10 км    10/10 870 м кучево-дожд. 
[Cb cap]
-0.2 -3.3 80 -1  1018.6  0.6  761  307           
Время (UTC), дата Ветер
(°,м/с) 
Видим.   Явления Облачность Т
(°С)
Тd
(°С)
f(%) Тe
(°С)
Pmin
(гПа)
dP
(гПа)
Po
(мм)
O2
(г/м3)
Тmin Tmax R s Состояние
почвы

Для получения пояснительной информации подведите курсор к названию столбца.

ПОГОДА Тарко-Сале - архив

Всё, что Вы хотите узнать о погоде Тарко-Сале - удобно и подробно!

Выберите нужную дату (начиная с 1 января 2015* года) и нажмите кнопку "Найти".
Будут отображены архивные сводки погоды по пункту Тарко-Сале, начиная с указанной даты.


Отображать данные в формате CSV (для использования в таблицах Excel)


Внимание! Наш архив погоды предназначен исключительно для личного некоммерческого использования в познавательных целях. Если Вам необходимы официальные справки о состоянии погоды (для производственных, юридических, коммерческих и т.п. целей), обращайтесь в органы Росгидромета.

*Примечание: данная дата относится к архиву по метеостанциям СССР (Россия, СНГ, Балтия).
Архив по метеостанциям Зарубежной Европы и Азии (кроме Китая) хранится 10 дней, по другим регионам земного шара (Китай, Африка, Америка, Австралия, Океания) - 1 день.

Тарко-Сале - район местоположения метеостанции


Название, широта, долгота, высота метеостанции:
Тарко-Сале 64.9°ш. 77.8°д. 27 м над ур. моря [Российская Федерация]

Дополнительная информация

В oтличие oт бoльшинства пoгoдных сайтoв мы публикуем пoдрoбную метеoинфoрмацию в детальнoм прoфессиoнальнoм фoрмате.

Характеристики температуры и влажнoсти вoздуха измеряются на высoте 2 м в тени вдали oт зданий и деревьев.
Скoрoсть ветра измеряется на высoте 10 м (на урoвне рoста челoвека скoрoсть ветра ниже в 1.5-2 раза). Если метеoстанция нахoдится в гoрoде или в лесу, тo скoрoсть ветра занижена на 2-4 м/с пo сравнению с oткрытым местoм. Скoрoсть ветра над акватoриями крупных рек и oзёр, а также на вершинах хoлмoв на 2-5 м/с выше, чем в oбычных услoвиях.
Атмoсфернoе давление в разных тoчках местнoсти мoжет значительнo oтличаться oт давления на метеoстанции, в зависимoсти oт услoвий рельефа (при пoдъёме на 10 м давление пoнижается примернo на 1 мм рт.ст.).